Location: ?????????
(44.2517°N, 135.2292°E)
Time: 10:26:40
(UTC+00:00)

BlueWalker 3 - Visible Passes

Search period start: 21 January 2026 00:00
Search period end: 31 January 2026 00:00
Orbit: 451 x 463 km, 53.2° (Epoch: 20 January)

Date Brightness Start Highest point End Pass type
(mag) Time Alt. Az. Time Alt. Az. Time Alt. Az.
21 Jan 2.0 09:33:33 10° SSW 09:36:58 46° SE 09:37:11 46° SE visible
22 Jan 2.5 08:58:19 10° SSW 09:01:37 35° SE 09:03:29 20° E visible
22 Jan 4.2 10:35:42 10° W 10:37:14 22° W 10:37:14 22° W visible
23 Jan 3.0 08:23:09 10° SSW 08:26:13 27° SE 08:29:17 10° ENE visible
23 Jan 2.5 10:00:07 10° WSW 10:03:26 46° NW 10:03:26 46° NW visible
24 Jan 2.1 09:24:32 10° WSW 09:28:03 58° NNW 09:29:32 30° NE visible
24 Jan 5.2 11:03:17 10° WNW 11:03:17 10° WNW 11:03:17 10° WNW visible
25 Jan 1.8 08:48:58 10° WSW 08:52:31 73° NNW 08:55:34 14° NE visible
25 Jan 4.1 10:27:33 10° WNW 10:29:18 19° NW 10:29:18 19° NW visible
26 Jan 3.3 09:51:48 10° WNW 09:54:49 25° NNW 09:55:16 24° N visible
27 Jan 3.2 09:16:02 10° W 09:19:10 28° NNW 09:21:10 17° NNE visible
27 Jan 5.0 10:54:51 10° NW 10:54:53 10° NW 10:54:53 10° NW visible
28 Jan 3.0 08:40:15 10° W 08:43:29 31° NNW 08:46:43 10° NE visible
28 Jan 4.1 10:19:08 10° NW 10:20:45 17° NNW 10:20:45 17° NNW visible
29 Jan 3.6 09:43:21 10° NW 09:46:00 19° N 09:46:33 19° N visible
30 Jan 3.6 09:07:31 10° NW 09:10:13 20° N 09:12:21 13° NE visible
30 Jan 4.7 10:45:38 10° NW 10:46:04 12° NW 10:46:04 12° NW visible
